Tracking 29058 objects as of 20-Jun-2024
HD Live streaming from Space Station
objects crossing your sky now

MOLNIYA 1-52

Track MOLNIYA 1-52 now!
MOLNIYA 1-52 is classified as:


NORAD ID: 13012
Int'l Code: 1981-123A
Perigee: 1,169.9 km
Apogee: 39,180.5 km
Inclination: 61.5 °
Period: 717.4 minutes
Semi major axis: 26546 km
RCS: 16.6943 m2 (large)
Launch date: December 23, 1981
Source: Commonwealth of Independent States (former USSR) (CIS)
Launch site: TYURATAM MISSILE AND SPACE COMPLEX (TTMTR)
Your satellite tracking list
Your tracking list is empty




NASA's NSSDC Master Catalog

Two Line Element Set (TLE):
1 13012U 81123A   24169.14798170  .00001637  00000-0  20006-1 0  9997
2 13012  61.5376 177.2628 7159335 264.4403  17.7147  2.00724056311239
Source of the keplerian elements: AFSPC